Location: Betz
(49.1556°N, 2.9558°E)
Time: 05:52:33
(UTC+00:00)

SAR-Lupe-2 - Pass Details

Date: 18 September 2019
Orbit: 481 x 485 km, 98.2° (Epoch: 07 October)

Event Time Altitude Azimuth Distance (km) Brightness Sun altitude
Rises 19:10:36 0° 14° (NNE) 2,564 7.3 -12.9°
Reaches altitude 10° 19:12:41 10° 15° (NNE) 1,678 6.3 -13.2°
Maximum altitude 19:16:18 86° 105° (ESE) 492 3.5 -13.7°
Drops below altitude 10° 19:19:52 10° 194° (SSW) 1,660 6.2 -14.3°
Sets 19:21:55 0° 195° (SSW) 2,534 7.2 -14.6°
